Location: Unspecified
(35.7250°N, 0.0000°E)
Time: 07:13:02
(UTC+00:00)

Vanguard 2 - Pass Details

Date: 19 June 2019
Orbit: 553 x 2938 km, 32.9° (Epoch: 20 July)

Event Time Altitude Azimuth Distance (km) Brightness Sun altitude
Rises 11:11:41 0° 267° (W) 3,907 11.0 73.7°
Reaches altitude 10° 11:13:56 10° 266° (W) 3,185 10.7 74.0°
Maximum altitude 11:22:12 77° 182° (S) 1,779 11.9 75.1°
Drops below altitude 10° 11:36:18 10° 100° (E) 5,172 12.0 76.6°
Sets 11:41:01 0° 99° (E) 6,445 12.3 76.9°
